Wind_Speed
15 15 16 16 17 17 12 8 7 12 9 13 19 20 24 26 26 29 33 18 16 17 17 11 9 4 4 5 5 5 6 8 8 9 7 7 8 8 11 12 13 14 15 15 14 14 13 11 11
16 15 16 17 19 18 9 6 8 9 12 17 21 24 20 24 26 28 9 16 20 21 17 12 9 4 4 5 7 7 9 9 8 8 5 6 7 8 9 11 12 13 13 14 15 16 16 14 12
19 17 18 19 20 20 12 12 10 11 15 21 27 27 21 18 19 5 14 17 12 14 12 7 5 4 4 4 4 3 7 9 9 9 9 10 10 11 11 11 11 11 12 13 16 16 14 13 14
22 21 19 18 21 19 16 16 16 18 16 23 27 27 25 19 22 6 14 13 14 9 6 3 3 5 8 8 9 10 12 10 10 11 12 12 13 14 15 15 13 13 13 13 15 15 13 12 13
25 24 23 19 18 24 27 19 19 14 22 25 30 29 20 14 11 11 8 16 18 14 7 6 8 11 13 13 14 15 16 15 16 16 17 18 17 18 17 16 17 17 16 15 17 15 13 12 13
28 26 24 22 21 23 26 26 21 21 22 26 29 29 22 18 19 19 21 17 12 10 11 13 16 17 18 19 19 21 21 21 20 21 20 20 20 21 21 20 19 18 18 17 17 17 16 15 14
24 27 27 24 22 26 31 29 28 22 26 32 31 24 25 28 23 21 23 18 13 12 17 20 22 21 21 22 23 23 24 24 24 24 24 24 24 25 25 24 24 23 22 21 20 20 20 18 17
20 19 22 27 26 32 34 32 29 28 28 35 33 26 27 22 15 21 3 7 16 21 22 21 22 22 22 22 23 24 23 24 24 23 25 25 24 24 25 26 26 26 26 24 24 23 24 23 21
18 18 18 22 29 34 38 35 33 34 29 30 33 23 21 21 19 15 14 17 15 17 19 20 20 21 21 25 23 24 25 24 26 27 27 26 26 26 25 25 25 26 27 26 25 25 25 24 24
15 16 18 25 25 28 32 35 31 29 28 26 29 27 24 23 17 15 17 18 16 17 17 19 21 18 20 20 18 25 26 22 23 27 28 29 31 28 27 28 29 28 28 27 26 26 25 25 24
14 16 24 25 26 28 31 31 29 16 17 24 24 22 27 27 21 22 23 18 23 20 18 21 19 21 23 20 20 20 24 25 18 19 18 25 29 31 26 28 30 29 29 29 29 28 27 26 25
13 18 20 22 23 25 27 26 28 20 20 20 27 26 24 27 24 22 22 21 21 21 23 16 16 13 15 18 16 16 21 28 26 25 33 28 26 30 28 27 28 27 27 32 31 30 29 29 28
18 18 19 20 21 21 23 27 26 24 23 25 27 29 29 25 21 19 24 21 19 18 18 17 14 9 10 20 21 22 22 23 24 25 26 27 27 27 29 28 30 35 34 32 34 31 30 31 31
26 24 24 26 25 24 24 25 25 28 28 25 26 29 27 26 23 21 21 22 20 19 18 15 14 13 10 12 17 19 20 19 18 22 23 22 23 27 24 29 27 24 30 32 33 32 31 30 30
32 32 30 25 28 31 27 26 28 30 31 29 27 30 28 24 24 23 23 21 21 21 19 17 16 17 15 12 15 18 21 17 17 20 23 23 25 26 25 21 31 35 35 25 25 31 34 30 29
27 25 25 27 29 29 35 27 27 31 34 32 31 30 30 25 24 23 25 26 22 23 24 21 19 18 17 17 18 20 22 20 18 19 21 23 25 24 24 23 24 19 12 14 23 31 32 32 33
22 24 26 28 29 32 34 30 29 33 34 33 32 29 28 28 27 25 25 25 26 25 25 24 21 21 22 20 21 24 25 23 23 23 21 23 23 23 25 24 20 20 18 19 26 26 31 31 33
25 26 29 29 32 34 34 30 30 33 34 32 31 31 28 28 27 27 27 26 27 28 27 27 25 25 27 25 24 28 27 27 26 25 25 24 23 24 23 13 18 18 22 20 21 24 24 29 29
26 29 30 31 32 34 33 32 30 30 32 32 30 29 29 29 28 30 30 30 28 29 29 28 28 29 30 29 28 30 32 30 29 28 28 27 25 25 20 24 21 19 21 20 22 22 20 24 26
27 29 30 27 22 29 30 29 29 27 24 24 24 25 29 32 31 31 34 35 33 32 31 30 31 32 32 33 33 34 33 33 32 29 30 29 27 25 25 22 18 17 20 21 18 18 19 21 25
31 29 27 29 26 31 34 33 29 26 25 26 26 27 27 29 32 33 33 34 35 34 34 33 33 35 36 36 37 36 36 36 34 31 31 31 30 24 24 21 17 19 19 19 19 20 21 20 22
28 23 26 29 30 29 35 38 33 30 31 33 31 30 33 34 36 33 34 35 36 36 35 36 35 37 38 39 39 38 37 37 37 35 31 31 32 27 23 20 18 19 18 19 19 21 22 23 24
32 29 28 30 30 30 30 39 31 30 33 33 36 38 38 39 39 38 39 37 33 33 34 34 35 37 40 40 41 41 38 38 38 38 34 31 31 28 24 20 19 18 18 18 20 22 22 24 25
28 30 28 29 31 37 34 29 27 24 29 32 33 34 35 37 33 33 38 39 35 34 35 35 36 35 39 39 40 42 41 41 40 39 36 33 31 30 25 23 20 19 18 18 19 20 22 23 24
33 34 35 34 35 37 33 30 30 22 31 34 30 34 32 32 29 31 32 28 31 31 31 31 32 35 40 40 39 42 43 42 42 41 39 36 35 33 28 26 24 22 21 19 19 19 20 22 23
34 31 35 40 37 32 33 37 24 28 33 31 29 31 31 29 35 37 43 39 36 33 34 36 36 34 42 41 40 42 43 43 43 42 40 40 39 36 34 32 27 25 22 21 22 22 21 22 24
34 34 38 40 41 43 43 41 42 39 38 38 37 34 39 42 39 38 38 40 38 41 47 52 52 40 42 42 41 43 43 43 42 41 42 42 41 38 38 35 34 29 26 23 24 26 25 24 25
35 38 40 45 47 50 50 52 55 48 47 46 45 42 41 46 53 54 50 48 46 47 50 42 39 36 41 41 42 42 43 44 42 41 44 44 43 41 41 39 37 34 32 29 28 28 27 27 27
34 40 48 49 50 56 59 58 58 59 57 51 49 47 48 46 47 49 50 55 55 51 51 44 48 55 48 46 45 46 45 45 44 41 43 44 43 42 41 43 41 38 37 34 33 32 30 29 29
49 48 45 51 56 59 62 63 59 61 59 55 54 54 53 49 51 58 56 61 54 50 48 48 49 37 41 36 41 42 44 47 47 44 43 44 43 43 42 44 43 43 41 38 38 37 35 33 31
Wind_Direction
195 189 180 176 169 162 142 196 199 269 278 291 286 294 306 301 298 300 307 157 154 160 147 161 144 168 184 193 218 252 269 278 290 296 302 309 312 319 322 323 323 320 315 310 310 310 309 311 313
195 194 185 180 169 154 188 210 229 259 262 278 284 293 308 317 314 315 138 154 166 171 147 148 135 161 200 228 236 245 259 262 274 277 291 300 301 307 311 313 317 322 326 319 318 315 310 306 306
197 194 193 184 172 167 204 197 229 259 273 272 277 282 295 321 326 356 143 130 154 175 154 157 146 172 203 227 222 233 258 263 265 267 278 288 295 295 296 299 305 302 311 312 315 322 311 308 304
200 198 192 186 175 194 219 205 198 240 271 292 283 283 295 302 316 270 168 150 162 169 140 174 186 194 213 229 239 251 249 253 259 257 254 267 278 283 285 287 288 292 299 306 311 321 315 305 309
202 202 197 189 191 209 221 217 208 278 285 285 287 278 271 289 281 238 202 162 179 162 173 214 213 228 234 239 242 245 248 245 246 247 250 253 259 265 268 272 280 285 293 299 303 310 319 308 303
209 212 204 196 201 224 229 226 232 245 277 281 280 270 278 288 289 269 246 231 203 177 208 229 237 238 246 248 248 250 250 251 253 256 256 257 260 262 264 268 269 273 279 286 292 298 307 310 308
219 222 215 208 212 227 232 235 240 267 286 288 280 271 278 290 293 226 210 196 214 206 223 231 237 240 245 253 255 256 259 259 258 261 264 264 264 264 265 267 271 275 279 282 286 289 296 300 304
222 221 223 215 226 229 238 239 242 252 278 282 272 267 278 290 286 303 38 259 235 223 229 241 246 247 254 258 261 264 268 270 267 262 263 265 263 263 265 266 268 271 273 276 279 283 287 290 294
222 226 222 213 220 234 241 243 246 256 265 285 278 269 268 278 273 288 271 274 261 247 254 251 257 266 267 269 263 268 271 271 276 276 273 269 267 267 269 268 267 266 267 271 273 274 277 281 286
231 219 227 229 229 234 245 247 252 261 260 274 280 275 278 275 272 273 276 288 274 253 254 280 279 273 257 302 270 291 287 272 276 272 275 284 282 277 271 270 268 266 265 264 266 270 273 275 278
235 217 227 233 234 240 248 251 254 267 292 281 280 280 281 284 286 283 275 275 262 266 281 279 279 287 289 286 289 265 286 281 281 277 273 271 280 276 275 279 274 273 273 271 268 266 267 271 272
242 236 240 243 240 243 254 261 266 270 264 277 280 280 278 284 290 283 278 276 273 269 271 273 271 271 269 267 281 271 273 283 270 286 285 285 278 268 268 271 274 273 277 275 269 267 266 268 269
253 251 254 250 254 250 254 261 262 264 268 267 275 279 278 277 288 284 274 279 282 281 281 282 286 269 247 257 272 269 275 281 280 285 283 280 271 271 282 285 276 273 276 268 263 259 260 262 268
255 253 260 264 264 262 260 260 266 269 269 268 273 274 278 285 291 287 281 287 288 284 284 282 282 285 282 258 262 274 278 274 276 281 287 289 289 283 284 290 285 297 298 272 263 265 265 262 266
264 261 259 263 262 260 258 255 262 264 269 266 259 260 269 278 280 283 280 276 281 283 281 281 286 288 297 287 277 274 277 287 286 281 285 289 286 287 296 298 290 297 299 274 272 269 260 259 260
261 262 257 254 254 253 253 245 249 253 258 260 259 261 266 266 261 270 282 287 278 279 281 281 283 284 287 287 279 274 278 283 280 284 284 288 291 297 289 287 289 297 287 292 270 266 270 271 270
255 255 254 255 253 251 254 250 249 250 250 254 256 257 262 262 262 260 262 269 274 276 278 282 283 284 284 282 278 277 281 285 287 284 288 289 292 294 297 292 290 274 290 275 264 267 260 257 261
246 242 247 247 252 257 257 256 245 254 258 253 254 254 255 256 259 258 257 257 265 273 276 280 282 283 283 284 284 284 285 286 287 288 287 288 288 287 294 288 304 293 287 287 274 268 263 258 260
251 253 256 256 252 255 258 259 256 251 254 259 256 255 254 252 251 259 261 259 256 261 267 271 275 277 280 279 279 281 285 286 287 288 286 283 287 283 267 286 286 284 288 288 284 284 279 272 263
259 258 261 263 265 259 258 255 256 259 258 257 258 262 260 257 254 256 258 262 262 260 260 260 263 268 271 272 273 276 278 277 277 277 278 280 280 282 285 283 283 286 285 284 288 287 287 278 270
252 256 258 261 248 247 257 263 263 267 274 280 279 272 268 268 267 265 262 260 261 263 262 260 256 260 263 265 268 270 275 274 274 274 275 276 274 273 274 279 283 275 278 292 296 291 286 285 283
254 247 254 252 252 248 255 268 268 277 280 280 276 265 263 260 260 259 257 258 258 259 261 262 260 261 261 261 265 267 268 270 272 273 271 272 275 275 272 272 274 279 289 292 291 290 291 290 286
263 271 264 262 263 257 249 254 260 254 254 255 253 255 255 256 259 258 258 257 256 256 255 254 256 257 259 262 264 265 265 265 266 268 267 266 269 270 268 264 272 282 287 290 289 288 287 288 286
262 264 268 265 264 262 265 270 257 262 253 251 256 253 264 266 261 260 257 253 249 248 249 251 252 252 257 258 261 263 264 262 263 264 264 262 261 262 260 263 265 269 275 280 283 286 289 291 289
242 253 259 259 261 270 269 264 262 255 250 246 254 254 260 258 260 256 256 254 244 247 249 252 256 255 257 257 258 259 261 262 262 263 263 260 257 256 253 251 254 260 269 274 275 277 279 282 284
243 249 258 265 270 278 271 271 274 266 272 262 251 252 260 266 263 263 264 256 250 251 255 261 262 255 255 257 254 255 256 259 261 263 263 261 259 255 255 253 251 254 264 275 281 279 278 281 285
264 257 260 268 273 277 275 267 267 268 268 259 261 268 262 264 264 262 263 262 255 256 264 271 270 263 255 250 250 252 255 257 258 259 260 259 259 258 256 256 257 257 260 264 270 274 277 275 275
266 267 262 266 272 271 270 273 275 276 270 263 262 274 267 261 264 264 264 262 262 268 273 275 260 262 254 253 252 254 256 254 253 253 255 258 257 256 255 256 257 257 257 259 264 268 273 275 275
263 266 265 262 259 262 264 266 266 267 269 269 270 270 262 265 247 251 255 261 264 263 261 264 270 276 257 255 249 249 252 252 252 250 252 255 257 257 256 255 258 260 257 257 261 267 272 274 275
271 270 262 257 258 260 265 267 266 270 273 272 268 265 261 263 255 248 251 253 258 257 268 270 262 264 244 250 251 247 248 252 251 249 249 252 255 258 258 258 259 260 259 259 259 264 268 274 276
Height
5904 5906 5908 5910 5915 5916 5915 5913 5913 5908 5908 5910 5911 5914 5917 5916 5916 5915 5910 5910 5913 5917 5919 5926 5926 5930 5931 5931 5932 5932 5933 5933 5932 5932 5932 5931 5931 5930 5929 5929 5928 5927 5926 5926 5926 5925 5924 5923 5922
5903 5905 5907 5908 5912 5913 5912 5911 5910 5911 5908 5908 5910 5911 5916 5916 5915 5914 5910 5914 5914 5916 5918 5923 5923 5929 5931 5932 5932 5932 5933 5933 5932 5932 5931 5931 5931 5931 5930 5929 5928 5927 5925 5925 5925 5924 5923 5923 5921
5902 5904 5905 5907 5910 5911 5909 5910 5908 5905 5907 5911 5911 5912 5916 5916 5914 5916 5914 5917 5919 5921 5919 5922 5922 5927 5930 5932 5931 5931 5932 5932 5932 5931 5931 5931 5930 5930 5929 5929 5927 5925 5924 5923 5923 5922 5921 5921 5921
5900 5902 5904 5906 5909 5909 5908 5909 5907 5903 5905 5906 5909 5911 5915 5915 5915 5919 5915 5916 5918 5920 5919 5922 5925 5925 5927 5928 5930 5930 5930 5930 5930 5929 5928 5928 5927 5926 5927 5927 5926 5924 5923 5921 5921 5921 5919 5918 5919
5897 5899 5901 5905 5908 5904 5903 5906 5906 5902 5902 5904 5905 5907 5911 5913 5911 5914 5916 5914 5916 5912 5916 5921 5922 5924 5924 5925 5926 5927 5927 5925 5926 5925 5924 5923 5922 5922 5922 5923 5923 5922 5922 5920 5920 5919 5917 5916 5916
5895 5897 5901 5903 5903 5904 5903 5904 5902 5899 5900 5901 5903 5904 5906 5910 5914 5914 5915 5917 5914 5912 5916 5918 5920 5920 5922 5922 5922 5923 5923 5923 5922 5922 5921 5921 5920 5919 5918 5917 5917 5917 5918 5917 5916 5916 5915 5914 5914
5892 5895 5898 5901 5903 5899 5897 5899 5899 5893 5893 5894 5898 5905 5905 5904 5907 5907 5909 5909 5909 5911 5914 5915 5916 5916 5916 5917 5918 5918 5919 5920 5920 5920 5919 5919 5917 5916 5916 5916 5915 5915 5915 5915 5914 5914 5914 5913 5912
5889 5892 5893 5897 5897 5891 5893 5896 5897 5894 5889 5888 5894 5902 5901 5902 5904 5904 5902 5907 5907 5906 5909 5911 5912 5913 5914 5914 5916 5916 5916 5917 5917 5917 5916 5915 5913 5913 5912 5913 5912 5912 5911 5911 5911 5911 5911 5910 5909
5886 5890 5891 5890 5890 5893 5891 5892 5892 5890 5887 5885 5886 5895 5897 5900 5904 5899 5899 5905 5906 5905 5907 5908 5910 5910 5910 5911 5912 5912 5912 5913 5913 5912 5912 5911 5910 5910 5910 5909 5909 5908 5907 5907 5906 5906 5906 5905 5905
5883 5885 5886 5885 5888 5890 5888 5888 5890 5887 5884 5885 5885 5889 5892 5895 5898 5896 5898 5901 5904 5902 5900 5903 5904 5906 5906 5907 5908 5909 5909 5909 5908 5907 5906 5907 5907 5906 5905 5904 5903 5903 5903 5902 5901 5901 5900 5900 5900
5879 5881 5879 5881 5883 5885 5883 5885 5885 5886 5883 5879 5881 5884 5884 5886 5891 5893 5896 5901 5900 5903 5898 5898 5902 5903 5902 5902 5904 5903 5903 5903 5902 5902 5900 5900 5900 5899 5897 5898 5898 5898 5898 5898 5897 5896 5895 5894 5894
5876 5876 5877 5878 5880 5881 5880 5881 5882 5882 5881 5880 5877 5879 5883 5883 5887 5885 5888 5892 5895 5895 5895 5897 5900 5899 5899 5897 5899 5897 5897 5898 5897 5894 5893 5892 5890 5891 5889 5889 5890 5891 5892 5893 5893 5892 5892 5890 5889
5873 5872 5873 5873 5875 5877 5877 5876 5877 5877 5877 5877 5876 5873 5876 5881 5881 5877 5882 5887 5888 5887 5888 5890 5890 5893 5896 5894 5894 5893 5892 5892 5890 5888 5887 5885 5883 5887 5886 5884 5883 5883 5883 5883 5885 5885 5885 5885 5884
5867 5869 5870 5870 5869 5871 5872 5872 5873 5872 5872 5873 5873 5871 5871 5871 5873 5869 5872 5877 5879 5881 5882 5884 5886 5888 5890 5890 5889 5887 5886 5887 5885 5882 5881 5879 5881 5881 5879 5877 5876 5874 5876 5876 5877 5880 5879 5879 5879
5861 5863 5865 5866 5864 5864 5865 5868 5868 5867 5867 5868 5869 5868 5869 5870 5870 5871 5865 5870 5873 5874 5876 5879 5879 5880 5880 5881 5880 5880 5882 5881 5879 5878 5877 5876 5876 5873 5872 5872 5871 5868 5866 5871 5873 5872 5872 5874 5872
5855 5856 5856 5855 5856 5857 5855 5865 5862 5860 5861 5864 5864 5865 5865 5867 5868 5868 5865 5863 5867 5868 5868 5872 5873 5874 5874 5875 5877 5877 5876 5875 5876 5875 5874 5872 5868 5867 5866 5867 5866 5863 5863 5867 5868 5867 5867 5866 5863
5848 5848 5849 5849 5848 5848 5849 5854 5853 5853 5855 5857 5858 5860 5861 5861 5862 5864 5864 5861 5861 5864 5864 5864 5866 5868 5867 5870 5871 5870 5869 5869 5870 5870 5869 5866 5863 5861 5859 5859 5860 5859 5859 5861 5861 5861 5862 5858 5858
5840 5840 5841 5842 5841 5841 5843 5847 5847 5845 5847 5851 5852 5853 5856 5857 5857 5857 5859 5859 5856 5855 5857 5857 5859 5859 5858 5859 5861 5860 5860 5862 5863 5863 5862 5860 5859 5857 5856 5854 5853 5854 5855 5855 5854 5854 5854 5854 5851
5833 5833 5835 5836 5836 5835 5836 5837 5839 5841 5841 5842 5845 5847 5847 5848 5849 5848 5850 5852 5853 5852 5852 5850 5850 5851 5851 5850 5851 5852 5851 5853 5854 5854 5853 5854 5854 5851 5852 5852 5850 5849 5849 5847 5848 5848 5845 5844 5845
5827 5827 5828 5829 5830 5826 5827 5830 5832 5833 5835 5836 5837 5837 5838 5839 5841 5842 5843 5843 5845 5847 5848 5848 5845 5845 5845 5843 5843 5843 5847 5848 5849 5850 5847 5848 5847 5846 5845 5844 5843 5844 5843 5843 5843 5841 5840 5840 5839
5818 5819 5820 5821 5820 5819 5818 5820 5824 5826 5827 5828 5828 5828 5829 5829 5830 5832 5834 5835 5836 5838 5839 5841 5842 5840 5840 5839 5838 5839 5838 5839 5841 5843 5841 5840 5840 5843 5841 5839 5838 5839 5838 5837 5837 5837 5836 5836 5833
5810 5812 5811 5811 5812 5815 5814 5812 5817 5820 5820 5819 5820 5819 5818 5818 5820 5822 5823 5825 5828 5830 5831 5832 5834 5834 5833 5832 5830 5831 5832 5832 5832 5834 5836 5834 5832 5833 5834 5834 5834 5832 5831 5831 5831 5831 5830 5829 5828
5802 5804 5805 5803 5804 5806 5808 5805 5812 5815 5813 5811 5808 5807 5806 5807 5809 5812 5813 5816 5818 5819 5821 5822 5823 5823 5824 5824 5822 5822 5824 5824 5825 5826 5829 5828 5826 5826 5826 5827 5827 5825 5826 5826 5826 5825 5825 5824 5824
5796 5795 5795 5795 5795 5795 5798 5800 5806 5805 5800 5800 5800 5797 5797 5796 5798 5801 5803 5804 5806 5809 5810 5812 5813 5814 5813 5814 5814 5813 5814 5815 5817 5818 5820 5821 5821 5821 5821 5821 5821 5820 5821 5822 5821 5820 5818 5817 5816
5785 5785 5785 5785 5785 5788 5788 5789 5792 5793 5791 5788 5789 5790 5788 5788 5789 5790 5792 5794 5796 5797 5799 5800 5803 5804 5803 5804 5806 5806 5805 5805 5807 5809 5811 5812 5813 5814 5816 5816 5814 5814 5814 5815 5815 5815 5814 5813 5812
5782 5782 5780 5774 5777 5781 5781 5779 5787 5786 5780 5779 5781 5781 5781 5781 5781 5782 5781 5783 5787 5788 5789 5790 5793 5794 5794 5794 5795 5795 5796 5797 5797 5799 5801 5802 5803 5805 5807 5807 5808 5807 5807 5807 5806 5807 5808 5808 5806
5773 5774 5774 5771 5771 5768 5769 5772 5773 5774 5772 5771 5772 5774 5773 5771 5773 5772 5773 5775 5776 5778 5779 5780 5781 5784 5784 5784 5784 5785 5786 5788 5790 5790 5791 5792 5794 5796 5797 5799 5799 5799 5799 5800 5800 5799 5800 5801 5801
5766 5766 5767 5762 5759 5757 5757 5757 5757 5761 5762 5763 5764 5763 5762 5763 5761 5760 5760 5762 5764 5766 5767 5765 5767 5770 5770 5772 5772 5773 5774 5776 5778 5781 5781 5781 5784 5786 5788 5790 5791 5792 5792 5792 5793 5793 5794 5794 5794
5759 5755 5753 5752 5752 5744 5740 5744 5745 5745 5745 5750 5751 5751 5751 5751 5751 5750 5747 5747 5749 5753 5755 5754 5756 5757 5759 5758 5761 5763 5763 5763 5765 5769 5770 5771 5773 5776 5778 5779 5781 5783 5784 5785 5785 5785 5785 5786 5786
5744 5741 5743 5739 5737 5734 5728 5726 5733 5732 5730 5732 5734 5734 5735 5734 5734 5737 5735 5735 5736 5737 5740 5742 5743 5743 5748 5748 5751 5754 5753 5753 5754 5756 5759 5760 5763 5765 5767 5769 5771 5772 5774 5775 5776 5776 5777 5777 5777